EZY2899 EGKK-EHAM

Flight info

Callsign EZY2899
Flight time 0h 40m
Altitude 29000
Route FRANE M604 GASBA M197 REDFA
Aircraft A320/M-SDE3FGHIRWY/LB1

Departure

Time 2026-05-07 09:45
Airport London Gatwick Airport (EGKK)

Arrival

Time 2026-05-07 10:26
Airport Amsterdam Airport Schiphol (EHAM)
Time Latitude Longitude Altitude Speed Heading
2026-05-07 09:23 51.15290 -0.19484 210 ft 0 kts 77°
2026-05-07 09:34 51.15287 -0.19501 215 ft 2 kts 77°
2026-05-07 09:34 51.15284 -0.19527 210 ft 2 kts 77°
2026-05-07 09:35 51.15280 -0.19554 215 ft 2 kts 77°
2026-05-07 09:35 51.15276 -0.19578 210 ft 2 kts 82°
2026-05-07 09:35 51.15273 -0.19605 216 ft 2 kts 100°
2026-05-07 09:35 51.15279 -0.19625 212 ft 0 kts 160°
2026-05-07 09:38 51.15257 -0.19625 213 ft 3 kts 187°
2026-05-07 09:38 51.15239 -0.19628 215 ft 2 kts 183°
2026-05-07 09:38 51.15228 -0.19626 211 ft 2 kts 173°
2026-05-07 09:38 51.15199 -0.19618 209 ft 4 kts 169°
2026-05-07 09:39 51.15175 -0.19610 205 ft 3 kts 168°
2026-05-07 09:39 51.15158 -0.19604 205 ft 3 kts 167°
2026-05-07 09:39 51.15121 -0.19592 205 ft 8 kts 168°
2026-05-07 09:39 51.15069 -0.19573 213 ft 7 kts 167°
2026-05-07 09:40 51.15022 -0.19586 209 ft 9 kts 221°
2026-05-07 09:40 51.15001 -0.19676 208 ft 8 kts 258°
2026-05-07 09:40 51.14992 -0.19755 205 ft 7 kts 259°
2026-05-07 09:40 51.14983 -0.19818 212 ft 5 kts 256°
2026-05-07 09:41 51.14975 -0.19870 205 ft 4 kts 256°
2026-05-07 09:41 51.14966 -0.19930 209 ft 9 kts 257°
2026-05-07 09:41 51.14942 -0.20109 216 ft 22 kts 257°
2026-05-07 09:41 51.14908 -0.20360 205 ft 24 kts 258°
2026-05-07 09:42 51.14871 -0.20625 208 ft 25 kts 257°
2026-05-07 09:42 51.14832 -0.20901 205 ft 26 kts 257°
2026-05-07 09:42 51.14806 -0.21094 207 ft 10 kts 259°
2026-05-07 09:42 51.14798 -0.21144 216 ft 0 kts 251°
2026-05-07 09:43 51.14788 -0.21175 214 ft 5 kts 248°
2026-05-07 09:43 51.14779 -0.21223 207 ft 4 kts 256°
2026-05-07 09:43 51.14766 -0.21319 208 ft 15 kts 258°
2026-05-07 09:44 51.14685 -0.21391 211 ft 16 kts 153°
2026-05-07 09:44 51.14585 -0.21317 214 ft 16 kts 161°
2026-05-07 09:44 51.14520 -0.21185 208 ft 16 kts 91°
2026-05-07 09:44 51.14552 -0.20940 212 ft 44 kts 77°
2026-05-07 09:45 51.14671 -0.20084 210 ft 111 kts 77°
2026-05-07 09:45 51.14874 -0.18614 215 ft 162 kts 77°
2026-05-07 09:45 51.15142 -0.16801 737 ft 165 kts 76°
2026-05-07 09:45 51.15407 -0.15018 1360 ft 170 kts 77°
2026-05-07 09:46 51.15677 -0.13078 1722 ft 190 kts 78°
2026-05-07 09:46 51.15954 -0.10905 2045 ft 213 kts 79°
2026-05-07 09:46 51.16271 -0.08450 2397 ft 238 kts 78°
2026-05-07 09:46 51.16636 -0.05751 2921 ft 257 kts 78°
2026-05-07 09:47 51.16890 -0.02901 3742 ft 263 kts 90°
2026-05-07 09:47 51.16845 0.00033 4633 ft 266 kts 91°
2026-05-07 09:47 51.16790 0.03006 5531 ft 270 kts 91°
2026-05-07 09:47 51.16732 0.06012 6399 ft 273 kts 92°
2026-05-07 09:48 51.16671 0.09073 7251 ft 277 kts 92°
2026-05-07 09:48 51.16612 0.12163 8085 ft 281 kts 91°
2026-05-07 09:48 51.16480 0.15278 8886 ft 284 kts 102°
2026-05-07 09:48 51.15676 0.18106 9644 ft 288 kts 128°
2026-05-07 09:49 51.14140 0.20172 10260 ft 299 kts 153°
2026-05-07 09:49 51.12152 0.21511 10504 ft 322 kts 155°
2026-05-07 09:49 51.10281 0.23648 10725 ft 343 kts 132°
2026-05-07 09:49 51.09030 0.26921 11257 ft 352 kts 109°
2026-05-07 09:50 51.08631 0.30767 11933 ft 357 kts 88°
2026-05-07 09:50 51.09145 0.34628 12611 ft 360 kts 67°
2026-05-07 09:50 51.10472 0.38011 12919 ft 362 kts 47°
2026-05-07 09:50 51.12459 0.40446 12994 ft 361 kts 26°
2026-05-07 09:51 51.14766 0.42033 13011 ft 361 kts 21°
2026-05-07 09:51 51.17118 0.43522 13474 ft 365 kts 21°
2026-05-07 09:51 51.19465 0.44997 14173 ft 367 kts 21°
2026-05-07 09:51 51.21854 0.46498 14823 ft 371 kts 21°
2026-05-07 09:52 51.24268 0.48014 15440 ft 374 kts 21°
2026-05-07 09:52 51.26704 0.49544 16049 ft 378 kts 21°
2026-05-07 09:52 51.29159 0.51087 16641 ft 381 kts 21°
2026-05-07 09:52 51.31637 0.52645 16936 ft 384 kts 21°
2026-05-07 09:53 51.34143 0.54181 17457 ft 387 kts 20°
2026-05-07 09:53 51.36699 0.55601 18053 ft 390 kts 18°
2026-05-07 09:53 51.39285 0.56940 18622 ft 393 kts 17°
2026-05-07 09:53 51.41902 0.58255 19179 ft 396 kts 17°
2026-05-07 09:54 51.44541 0.59577 19718 ft 399 kts 17°
2026-05-07 09:54 51.47200 0.60924 20248 ft 402 kts 18°
2026-05-07 09:54 51.49876 0.62305 20761 ft 405 kts 18°
2026-05-07 09:54 51.52567 0.63714 21253 ft 408 kts 18°
2026-05-07 09:55 51.55275 0.65144 21725 ft 411 kts 18°
2026-05-07 09:55 51.58003 0.66586 22177 ft 414 kts 18°
2026-05-07 09:55 51.60747 0.68040 22623 ft 417 kts 18°
2026-05-07 09:55 51.63515 0.69508 23056 ft 419 kts 18°
2026-05-07 09:56 51.66295 0.70984 23467 ft 422 kts 18°
2026-05-07 09:56 51.69092 0.72476 23866 ft 425 kts 18°
2026-05-07 09:56 51.71906 0.73976 24251 ft 427 kts 18°
2026-05-07 09:56 51.74729 0.75509 24616 ft 430 kts 21°
2026-05-07 09:57 51.77432 0.77584 24971 ft 432 kts 30°
2026-05-07 09:57 51.79904 0.80362 25321 ft 434 kts 40°
2026-05-07 09:57 51.82081 0.83761 25662 ft 436 kts 49°
2026-05-07 09:57 51.83925 0.87670 25994 ft 439 kts 57°
2026-05-07 09:58 51.85362 0.91950 26307 ft 441 kts 66°
2026-05-07 09:58 51.86389 0.96638 26629 ft 443 kts 73°
2026-05-07 09:58 51.87262 1.01424 26932 ft 445 kts 73°
2026-05-07 09:58 51.88135 1.06242 27235 ft 447 kts 73°
2026-05-07 09:59 51.89009 1.11073 27525 ft 449 kts 73°
2026-05-07 09:59 51.89887 1.15938 27806 ft 451 kts 73°
2026-05-07 09:59 51.90765 1.20816 28078 ft 453 kts 73°
2026-05-07 09:59 51.91646 1.25721 28341 ft 454 kts 73°
2026-05-07 10:00 51.92527 1.30641 28594 ft 456 kts 74°
2026-05-07 10:00 51.93414 1.35605 28834 ft 458 kts 74°
2026-05-07 10:00 51.94297 1.40568 28982 ft 458 kts 74°
2026-05-07 10:01 51.96033 1.50409 29010 ft 452 kts 74°
2026-05-07 10:01 51.97747 1.60208 29009 ft 451 kts 74°
2026-05-07 10:02 51.99449 1.69997 29009 ft 451 kts 75°
2026-05-07 10:02 52.01021 1.79788 29008 ft 451 kts 76°
2026-05-07 10:03 52.02515 1.89671 28701 ft 451 kts 76°
2026-05-07 10:03 52.03263 1.94631 28449 ft 451 kts 76°
2026-05-07 10:03 52.03768 1.97977 28284 ft 452 kts 76°
2026-05-07 10:03 52.04513 2.02882 28031 ft 452 kts 76°
2026-05-07 10:04 52.05271 2.07844 27779 ft 453 kts 76°
2026-05-07 10:04 52.06033 2.12811 27233 ft 453 kts 76°
2026-05-07 10:04 52.06796 2.17791 26600 ft 452 kts 76°
2026-05-07 10:04 52.07551 2.22732 25974 ft 448 kts 76°
2026-05-07 10:05 52.08296 2.27632 25348 ft 444 kts 76°
2026-05-07 10:05 52.09030 2.32491 24722 ft 440 kts 76°
2026-05-07 10:05 52.09750 2.37304 24104 ft 436 kts 76°
2026-05-07 10:05 52.10460 2.42076 23472 ft 432 kts 76°
2026-05-07 10:06 52.11231 2.46780 23094 ft 428 kts 71°
2026-05-07 10:06 52.12403 2.51201 22669 ft 424 kts 65°
2026-05-07 10:06 52.13631 2.55548 22038 ft 421 kts 65°
2026-05-07 10:06 52.14849 2.59866 21432 ft 417 kts 65°
2026-05-07 10:07 52.16055 2.64141 20858 ft 413 kts 65°
2026-05-07 10:07 52.17257 2.68396 20408 ft 412 kts 65°
2026-05-07 10:07 52.18443 2.72599 19982 ft 405 kts 65°
2026-05-07 10:07 52.19613 2.76745 19557 ft 400 kts 65°
2026-05-07 10:08 52.20757 2.80806 19135 ft 396 kts 65°
2026-05-07 10:08 52.21897 2.84868 18705 ft 393 kts 65°
2026-05-07 10:08 52.23034 2.88924 18277 ft 390 kts 65°
2026-05-07 10:08 52.24159 2.92943 17857 ft 388 kts 65°
2026-05-07 10:09 52.25277 2.96939 17433 ft 385 kts 65°
2026-05-07 10:09 52.26385 3.00908 17005 ft 383 kts 65°
2026-05-07 10:09 52.27484 3.04860 16578 ft 381 kts 65°
2026-05-07 10:09 52.28573 3.08784 16151 ft 378 kts 65°
2026-05-07 10:10 52.29656 3.12682 15727 ft 376 kts 65°
2026-05-07 10:10 52.30736 3.16569 15302 ft 374 kts 65°
2026-05-07 10:10 52.31805 3.20425 14872 ft 371 kts 65°
2026-05-07 10:10 52.32856 3.24216 14456 ft 371 kts 65°
2026-05-07 10:11 52.33913 3.28046 14030 ft 368 kts 66°
2026-05-07 10:11 52.34962 3.31858 13603 ft 366 kts 66°
2026-05-07 10:11 52.36003 3.35651 13175 ft 363 kts 66°
2026-05-07 10:11 52.37034 3.39413 12740 ft 361 kts 66°
2026-05-07 10:12 52.38057 3.43151 12324 ft 359 kts 66°
2026-05-07 10:12 52.39074 3.46876 11901 ft 356 kts 66°
2026-05-07 10:12 52.40076 3.50553 11477 ft 351 kts 66°
2026-05-07 10:12 52.41058 3.54157 11066 ft 339 kts 66°
2026-05-07 10:13 52.41991 3.57589 10707 ft 320 kts 66°
2026-05-07 10:13 52.42870 3.60818 10370 ft 311 kts 66°
2026-05-07 10:13 52.43745 3.64041 10031 ft 306 kts 66°
2026-05-07 10:13 52.44594 3.67167 9698 ft 293 kts 66°
2026-05-07 10:14 52.45418 3.70198 9384 ft 289 kts 66°
2026-05-07 10:14 52.46230 3.73195 9056 ft 286 kts 66°
2026-05-07 10:14 52.47032 3.76162 8778 ft 284 kts 66°
2026-05-07 10:14 52.47830 3.79124 8501 ft 283 kts 66°
2026-05-07 10:15 52.48622 3.82073 8226 ft 282 kts 66°
2026-05-07 10:15 52.49410 3.85010 7950 ft 280 kts 66°
2026-05-07 10:15 52.50194 3.87930 7672 ft 279 kts 66°
2026-05-07 10:15 52.50968 3.90813 7401 ft 278 kts 66°
2026-05-07 10:16 52.51670 3.93758 7128 ft 277 kts 76°
2026-05-07 10:16 52.51822 3.96884 6995 ft 275 kts 97°
2026-05-07 10:16 52.51296 3.99897 7012 ft 276 kts 110°
2026-05-07 10:16 52.50616 4.02850 7012 ft 276 kts 111°
2026-05-07 10:17 52.49921 4.05800 7011 ft 277 kts 111°
2026-05-07 10:17 52.49222 4.08739 7013 ft 277 kts 111°
2026-05-07 10:17 52.48519 4.11685 7014 ft 277 kts 111°
2026-05-07 10:17 52.47811 4.14612 6926 ft 275 kts 114°
2026-05-07 10:18 52.46707 4.17112 6624 ft 268 kts 137°
2026-05-07 10:18 52.45265 4.19070 6119 ft 271 kts 142°
2026-05-07 10:18 52.43774 4.20956 5685 ft 270 kts 142°
2026-05-07 10:18 52.42286 4.22822 5282 ft 269 kts 142°
2026-05-07 10:19 52.40803 4.24678 4878 ft 267 kts 142°
2026-05-07 10:19 52.39329 4.26521 4473 ft 266 kts 142°
2026-05-07 10:19 52.37884 4.28326 4299 ft 255 kts 142°
2026-05-07 10:19 52.36525 4.30022 4172 ft 243 kts 142°
2026-05-07 10:20 52.35191 4.31686 3973 ft 234 kts 142°
2026-05-07 10:20 52.33903 4.33292 3661 ft 232 kts 142°
2026-05-07 10:20 52.32625 4.34884 3389 ft 230 kts 142°
2026-05-07 10:20 52.31348 4.36474 3191 ft 231 kts 142°
2026-05-07 10:21 52.30089 4.38041 3000 ft 230 kts 142°
2026-05-07 10:21 52.28818 4.39623 2795 ft 229 kts 142°
2026-05-07 10:21 52.27549 4.41201 2588 ft 229 kts 142°
2026-05-07 10:21 52.26284 4.42774 2426 ft 228 kts 142°
2026-05-07 10:22 52.25022 4.44341 2278 ft 228 kts 142°
2026-05-07 10:22 52.23762 4.45906 2128 ft 227 kts 142°
2026-05-07 10:22 52.22502 4.47470 2008 ft 227 kts 142°
2026-05-07 10:22 52.21283 4.49091 1920 ft 226 kts 131°
2026-05-07 10:23 52.20687 4.51402 1932 ft 225 kts 90°
2026-05-07 10:23 52.21147 4.53794 1939 ft 226 kts 58°
2026-05-07 10:23 52.22013 4.55938 1935 ft 226 kts 56°
2026-05-07 10:23 52.22874 4.58091 1935 ft 226 kts 57°
2026-05-07 10:24 52.23720 4.60266 1850 ft 227 kts 58°
2026-05-07 10:24 52.24552 4.62418 1592 ft 222 kts 58°
2026-05-07 10:24 52.25350 4.64485 1319 ft 209 kts 58°
2026-05-07 10:24 52.26096 4.66417 1079 ft 194 kts 58°
2026-05-07 10:25 52.26793 4.68224 797 ft 181 kts 58°
2026-05-07 10:25 52.27421 4.69855 582 ft 160 kts 58°
2026-05-07 10:25 52.27989 4.71328 375 ft 147 kts 58°
2026-05-07 10:25 52.28516 4.72698 197 ft 142 kts 58°
2026-05-07 10:26 52.29035 4.74055 10 ft 140 kts 58°
2026-05-07 10:26 52.29475 4.75197 -5 ft 79 kts 58°
2026-05-07 10:26 52.29635 4.75610 -1 ft 30 kts 57°
2026-05-07 10:26 52.29802 4.75816 -3 ft 28 kts 24°
2026-05-07 10:27 52.29911 4.75912 -3 ft 15 kts 30°
2026-05-07 10:27 52.29969 4.75963 -3 ft 5 kts 27°
2026-05-07 10:27 52.29981 4.75975 -3 ft 1 kts 35°
2026-05-07 10:27 52.29986 4.75984 -3 ft 3 kts 44°
2026-05-07 10:28 52.30012 4.76041 -3 ft 0 kts 54°
2026-05-07 10:28 52.30040 4.76105 -3 ft 15 kts 54°
2026-05-07 10:28 52.30091 4.76247 -3 ft 10 kts 60°
2026-05-07 10:29 52.30095 4.76258 -3 ft 3 kts 60°
2026-05-07 10:29 52.30150 4.76290 -2 ft 9 kts 349°
2026-05-07 10:29 52.30177 4.76226 -2 ft 7 kts 262°
2026-05-07 10:30 52.30140 4.76120 -2 ft 4 kts 237°
2026-05-07 10:30 52.30119 4.76063 -2 ft 12 kts 238°
2026-05-07 10:30 52.30047 4.75873 -2 ft 23 kts 238°
2026-05-07 10:30 52.29961 4.75649 -2 ft 24 kts 238°
2026-05-07 10:31 52.29872 4.75418 -2 ft 24 kts 238°
2026-05-07 10:31 52.29842 4.75198 -2 ft 21 kts 300°
2026-05-07 10:31 52.29927 4.75033 -2 ft 17 kts 312°
2026-05-07 10:31 52.30006 4.74889 -2 ft 18 kts 312°
2026-05-07 10:32 52.30092 4.74728 -2 ft 19 kts 309°
2026-05-07 10:32 52.30182 4.74562 -2 ft 20 kts 312°
2026-05-07 10:32 52.30279 4.74383 -2 ft 22 kts 311°
2026-05-07 10:32 52.30390 4.74211 -2 ft 22 kts 333°
2026-05-07 10:33 52.30544 4.74203 -2 ft 23 kts
2026-05-07 10:33 52.30707 4.74214 -2 ft 24 kts
2026-05-07 10:33 52.30805 4.74223 -2 ft 0 kts
2026-05-07 10:37 52.30835 4.74227 -2 ft 13 kts
2026-05-07 10:37 52.30964 4.74242 -3 ft 20 kts
2026-05-07 10:37 52.31112 4.74253 -2 ft 22 kts
2026-05-07 10:38 52.31258 4.74266 -2 ft 21 kts
2026-05-07 10:38 52.31380 4.74320 -2 ft 18 kts 49°
2026-05-07 10:38 52.31398 4.74525 -2 ft 19 kts 86°
2026-05-07 10:38 52.31406 4.74755 -2 ft 21 kts 87°
2026-05-07 10:39 52.31412 4.75006 -2 ft 23 kts 88°
2026-05-07 10:39 52.31421 4.75271 -2 ft 21 kts 85°
2026-05-07 10:39 52.31397 4.75439 -2 ft 14 kts 154°
2026-05-07 10:39 52.31307 4.75451 -2 ft 12 kts 178°
2026-05-07 10:40 52.31227 4.75457 -2 ft 11 kts 177°
2026-05-07 10:40 52.31158 4.75463 -2 ft 9 kts 182°
2026-05-07 10:40 52.31118 4.75408 -2 ft 7 kts 234°
2026-05-07 10:40 52.31088 4.75393 -2 ft 4 kts 147°
2026-05-07 10:41 52.31070 4.75416 -2 ft 3 kts 144°
2026-05-07 10:41 52.31053 4.75433 -2 ft 3 kts 148°
2026-05-07 10:41 52.31040 4.75446 -2 ft 2 kts 148°
2026-05-07 10:41 52.31032 4.75454 -2 ft 1 kts 148°
2026-05-07 10:42 52.31028 4.75458 -2 ft 0 kts 148°
2026-05-07 10:42 52.31026 4.75461 -2 ft 1 kts 148°
2026-05-07 10:42 52.31024 4.75463 -2 ft 0 kts 148°